N7DTY Weather Reports


time (UTC)temp
F
wind
direction
speed
knots
gust
knots
rain 1hr
in
rain 24hr
in
rain mn
in
humidity
%
barometer
mb
20260508190101 53 170 3.5 10.4 0.00 0.00 0.00 76 1020.0
20260508184551 53 160 3.5 13.9 0.00 0.00 0.00 76 1020.0
20260508183046 53 171 4.3 7.8 0.00 0.00 0.00 77 1019.8
20260508181603 54 157 2.6 9.6 0.00 0.00 0.00 79 1019.5
20260508180048 54 184 2.6 10.4 0.00 0.00 0.00 79 1019.4
20260508174549 54 195 2.6 11.3 0.00 0.00 0.00 79 1019.4
20260508173039 54 186 4.3 13.0 0.00 0.00 0.00 78 1019.1
20260508171537 54 178 2.6 7.0 0.00 0.00 0.00 79 1018.8
20260508170033 54 184 3.5 7.8 0.00 0.00 0.00 78 1018.6
20260508164531 54 167 2.6 7.0 0.00 0.00 0.00 79 1018.4
20260508163037 53 159 2.6 7.0 0.00 0.00 0.00 80 1018.4
20260508161535 53 147 1.7 8.7 0.00 0.00 0.00 81 1018.1
20260508160030 53 202 4.3 8.7 0.00 0.00 0.00 79 1018.1
20260508154525 53 140 3.5 7.0 0.00 0.00 0.00 80 1017.9
20260508153025 53 151 1.7 7.0 0.00 0.00 0.00 82 1017.7
20260508151524 52 180 3.5 8.7 0.00 0.00 0.00 82 1017.9
20260508150024 52 173 1.7 9.6 0.00 0.00 0.00 82 1017.8
20260508144517 53 171 3.5 7.8 0.00 0.00 0.00 82 1017.5
20260508143023 52 221 1.7 9.6 0.00 0.00 0.00 85 1017.2
20260508141512 52 196 1.7 7.0 0.00 0.00 0.00 87 1017.0
20260508140016 52 167 2.6 6.1 0.00 0.00 0.00 85 1016.7
20260508134509 52 176 0.9 5.2 0.00 0.00 0.00 87 1016.7
20260508133003 52 214 0.9 11.3 0.00 0.00 0.00 86 1016.5
20260508131559 52 200 2.6 12.2 0.00 0.00 0.00 88 1016.5
20260508130058 52 207 1.7 6.1 0.00 0.00 0.00 88 1016.3
20260508124556 52 193 1.7 6.1 0.00 0.00 0.00 88 1016.4
20260508123106 51 184 1.7 3.5 0.00 0.00 0.00 88 1016.3
20260508121557 51 126 0.9 4.3 0.00 0.00 0.00 90 1016.2
20260508120053 51 229 0.0 1.7 0.00 0.00 0.00 89 1016.1
20260508114554 51 248 0.0 0.9 0.00 0.00 0.00 89 1015.9
20260508113153 51 248 0.0 1.7 0.00 0.00 0.00 89 1016.0
20260508111550 51 188 0.0 3.5 0.00 0.00 0.00 90 1016.0
20260508110049 51 190 0.9 2.6 0.00 0.00 0.00 90 1016.0
20260508104548 51 190 0.0 0.9 0.00 0.00 0.00 89 1015.9
20260508103050 51 190 0.0 1.7 0.00 0.00 0.00 89 1015.9
20260508101549 51 199 0.0 1.7 0.00 0.00 0.00 88 1015.8
20260508100047 51 201 0.0 1.7 0.00 0.00 0.00 87 1015.8
20260508094606 51 201 0.0 0.0 0.00 0.00 0.00 87 1015.7
20260508093046 51 201 0.0 0.0 0.00 0.00 0.00 86 1015.7
20260508091546 51 201 0.0 1.7 0.00 0.00 0.00 86 1015.7
20260508090049 51 180 0.0 0.9 0.00 0.00 0.00 86 1015.7
20260508084543 51 180 0.0 0.0 0.00 0.00 0.00 86 1015.8
20260508083042 51 180 0.0 0.0 0.00 0.00 0.00 85 1015.8
20260508081559 52 180 0.0 0.0 0.00 0.00 0.00 84 1016.0
20260508080036 52 180 0.0 0.0 0.00 0.00 0.00 82 1016.0
20260508074535 52 180 0.0 0.0 0.00 0.00 0.00 82 1016.1
20260508073036 53 180 0.0 0.0 0.00 0.00 0.00 82 1016.2
20260508071541 53 180 0.0 2.6 0.00 0.00 0.00 81 1016.2
20260508070028 54 117 1.7 7.8 0.00 0.00 0.00 80 1016.3
20260508064530 54 163 1.7 5.2 0.00 0.00 0.00 81 1016.3
20260508063043 54 180 1.7 3.5 0.00 0.00 0.00 81 1016.3
20260508061526 54 198 0.0 4.3 0.00 0.00 0.00 83 1016.2
20260508060029 54 209 0.9 3.5 0.00 0.00 0.00 81 1016.2
20260508054525 53 175 0.0 1.7 0.00 0.00 0.00 82 1016.2
20260508053025 54 173 0.0 4.3 0.00 0.00 0.00 81 1016.2
20260508051523 54 178 0.0 3.5 0.00 0.00 0.00 80 1016.2
20260508050022 55 130 1.7 7.0 0.00 0.00 0.00 80 1016.3
20260508044526 55 204 1.7 4.3 0.00 0.00 0.00 79 1016.5
20260508043022 55 211 1.7 6.1 0.00 0.00 0.00 78 1016.6
20260508041519 55 166 2.6 4.3 0.00 0.00 0.00 77 1016.6
20260508040019 55 184 0.9 4.3 0.00 0.00 0.00 78 1016.7
20260508034518 55 144 0.0 4.3 0.00 0.00 0.00 78 1016.6
20260508033018 56 184 0.9 4.3 0.00 0.00 0.00 77 1016.5
20260508031516 57 170 0.9 4.3 0.00 0.00 0.00 76 1016.5
20260508030015 57 170 0.0 3.5 0.00 0.00 0.00 77 1016.7
20260508024530 57 195 0.9 3.5 0.00 0.00 0.00 76 1016.7
20260508023022 58 163 0.9 4.3 0.00 0.00 0.00 77 1016.6
20260508021513 58 171 0.9 3.5 0.00 0.00 0.00 76 1016.8
20260508020011 58 193 0.9 4.3 0.00 0.00 0.00 76 1016.7
20260508014510 59 193 1.7 6.1 0.00 0.00 0.00 76 1016.9
20260508013008 59 142 1.7 4.3 0.00 0.00 0.00 74 1017.1
20260508011506 59 144 2.6 7.8 0.00 0.00 0.00 75 1017.2
20260508010005 59 351 1.7 4.3 0.00 0.00 0.00 74 1017.3
20260508004504 60 144 1.7 7.8 0.00 0.00 0.00 74 1017.5
20260508003005 59 181 1.7 5.2 0.00 0.00 0.00 77 1017.5
20260508001503 59 159 0.9 5.2 0.00 0.00 0.00 76 1017.4
20260508000002 60 162 1.7 5.2 0.00 0.00 0.00 73 1017.4
20260507234502 60 202 2.6 6.1 0.00 0.00 0.00 73 1017.5
20260507233100 60 205 2.6 6.1 0.00 0.00 0.00 72 1017.5
20260507231601 61 191 1.7 6.1 0.00 0.00 0.00 72 1017.6
20260507230104 60 184 1.7 6.1 0.00 0.00 0.00 73 1017.7
20260507224600 60 207 3.5 7.8 0.00 0.00 0.00 73 1017.9
20260507223056 60 203 3.5 7.0 0.00 0.00 0.00 73 1017.9
20260507221554 60 156 1.7 7.0 0.00 0.00 0.00 74 1018.1
20260507220152 61 175 2.6 7.0 0.00 0.00 0.00 72 1018.3
20260507214602 61 178 2.6 7.8 0.00 0.00 0.00 72 1018.6
20260507213046 62 183 2.6 7.0 0.00 0.00 0.00 72 1018.8
20260507211549 61 171 2.6 7.0 0.00 0.00 0.00 73 1018.9
20260507210045 61 209 1.7 4.3 0.00 0.00 0.00 74 1019.1
20260507204543 60 185 1.7 5.2 0.00 0.00 0.00 76 1019.3
20260507203056 59 151 3.5 7.0 0.00 0.00 0.00 75 1019.6
20260507201551 59 144 2.6 7.8 0.00 0.00 0.00 77 1019.8
20260507200053 59 159 2.6 7.8 0.00 0.00 0.00 76 1019.8
20260507194539 60 155 0.9 6.1 0.00 0.00 0.00 78 1019.8
20260507193044 60 198 1.7 6.1 0.00 0.00 0.00 76 1019.9
20260507191534 59 185 1.7 4.3 0.00 0.00 0.00 76 1020.0